カタログに戻る

HEBI-4

運用中科学SSO
NORAD 61870·PAYLOAD·🇨🇳 China
この衛星名は、まだ公式ソースで確認されていません。

打ち上げ Nov 9, 2024 から Jiuquan Satellite Launch Center

Loading…

次のパス (今後24時間)

TLE

最新Source: Space-Track

元期: Sep 14, 2026, 22:19 UTC

1 61870U 24203B   26257.93045484  .00013657  00000-0  43798-3 0  9998
2 61870  97.4091 328.2517 0010398  14.9589 345.1958 15.32406596102705

AllMySatでHEBI-4をリアルタイム追跡

Download on the App Store